Location: Carrières
(48.9495°N, 2.0407°E)
Time: 19:49:30
(UTC+00:00)

Tiros 1 - Pass Details

Date: 22 April 2024
Orbit: 624 x 657 km, 48.4° (Epoch: 24 May)

Event Time Altitude Azimuth Distance (km) Brightness Sun altitude
Rises 02:35:28 0° 274° (W) 2,921 - -18.7°
Reaches altitude 10° 02:37:48 10° 274° (W) 2,008 - -18.5°
Exits shadow 02:39:52 26° 272° (W) 1,235 8.2 -18.2°
Maximum altitude 02:42:25 82° 187° (S) 638 7.0 -17.9°
Drops below altitude 10° 02:47:01 10° 100° (E) 1,995 10.1 -17.4°
Sets 02:49:19 0° 100° (E) 2,899 11.0 -17.1°
